Weather in Tarbagatay

Russia / Republic of Buryatia     51°28′53″N   107°21′37″E
temp.,
°C
wind,
m/s
gust,
m/s
humid.,
%
clouds,
%
prec.,
mm/h
press.,
hPa
HPBL,
m
23 may, mon
mon2323:00+14nne225699 0.2 100511
02:00+13n2270100 0.4 100521
05:00+11w1183100 0.4 100610
08:00+14wnw1365100 0.8 1008510
11:00+18nnw7103884 0.1 10092248
14:00+19nnw792897 0.1 10092678
17:00+19nnw8927100 0.0 10102707
20:00+15nne48370 0.0 1014341
24 may, tue
tue2423:00+8n11580 0.0 101912
02:00+7wnw11715 0.0 102110
05:00+5nne11765 0.0 102410
08:00+12nne12510 0.0 1026342
11:00+17nne22340 0.0 10241479
14:00+21ne12251 0.0 10222182
17:00+22e122319 0.0 10212358
20:00+18ne3334100 0.0 102150
25 may, wed
wed2523:00+12ne114824 0.0 102310
02:00+10ne115166 0.0 102310
05:00+9nnw11546 0.0 102310
08:00+16nnw013698 0.0 1022300
11:00+22w23255 0.0 10191352
14:00+25w33192 0.0 10162986
17:00+25sw12185 0.0 10132797
20:00+21ese1130100 0.0 101111
26 may, thu
thu2623:00+17sse222891 0.0 101015
02:00+14se223584 0.0 100811
05:00+12wnw1143100 0.0 100710
08:00+17sw2334100 0.0 1005183
11:00+21wnw2428100 0.0 1004677
14:00+24nnw872285 0.0 10032801
17:00+23nw8112799 0.0 10022679
20:00+18wnw510415 0.0 1004966
27 may, fri
fri2723:00+13wnw224856 0.0 100512
02:00+9wnw22635 0.0 100728
05:00+8wnw710687 0.0 1008567
08:00+11nw48445 0.0 10081465
11:00+13nw9133473 0.0 10072001
14:00+15nnw9122595 0.0 10063024
17:00+15nnw9122486 0.0 10053045
20:00+12n59334 0.0 10061025